This is the latest recevied weather packets stored in our database for station/object WD9U. If no packets are shown the sender has not sent any weather packets the latest 10 day(s).
| Time | Temp. | Humidity | Pressure | Rain* | Wind** | Luminosity | Snow |
|---|---|---|---|---|---|---|---|
| 1777790719 | 10.56° C | 66% | 1007.8 hPa | 0 mm | - | 0 W/m² | - |
| 1777790597 | 10.56° C | 66% | 1007.8 hPa | 0 mm | - | 0 W/m² | - |
| 1777790237 | 10.56° C | 66% | 1007.8 hPa | 0 mm | - | 0 W/m² | - |
| 1777789877 | 11.11° C | 65% | 1007.7 hPa | 0 mm | - | 0 W/m² | - |
| 1777789516 | 11.11° C | 64% | 1007.9 hPa | 0 mm | - | 0 W/m² | - |
| 1777789156 | 11.11° C | 63% | 1008.1 hPa | 0 mm | - | 0 W/m² | - |
| 1777788796 | 11.11° C | 63% | 1008.2 hPa | 0 mm | - | 0 W/m² | - |
| 1777788436 | 11.67° C | 62% | 1008.3 hPa | 0 mm | - | 0 W/m² | - |
| 1777788319 | 11.67° C | 61% | 1008.3 hPa | 0 mm | - | 0 W/m² | - |
| 1777788076 | 11.67° C | 58% | 1008.6 hPa | 0 mm | - | 0 W/m² | - |
| 1777787716 | 11.67° C | 58% | 1008.6 hPa | 0 mm | - | 0 W/m² | - |
| 1777787356 | 11.67° C | 56% | 1008.8 hPa | 0 mm | - | 0 W/m² | - |
| 1777787119 | 11.67° C | 55% | 1008.8 hPa | 0 mm | - | 0 W/m² | - |
| 1777786995 | 11.67° C | 55% | 1008.8 hPa | 0 mm | - | 0 W/m² | - |
| 1777786635 | 11.67° C | 53% | 1008.8 hPa | 0 mm | - | 0 W/m² | - |
| 1777786275 | 11.67° C | 53% | 1008.7 hPa | 0 mm | - | 0 W/m² | - |
| 1777785915 | 11.67° C | 52% | 1008.7 hPa | 0 mm | - | 0 W/m² | - |
| 1777785555 | 11.11° C | 51% | 1008.7 hPa | 0 mm | - | 0 W/m² | - |
| 1777785195 | 11.11° C | 52% | 1008.7 hPa | 0 mm | - | 0 W/m² | - |
| 1777784835 | 10.56° C | 51% | 1008.6 hPa | 0 mm | - | 0 W/m² | - |
| 1777784717 | 10.56° C | 52% | 1008.6 hPa | 0 mm | - | 0 W/m² | - |
| 1777784475 | 10.56° C | 52% | 1008.7 hPa | 0 mm | - | 0 W/m² | - |
| 1777784115 | 10° C | 52% | 1008.6 hPa | 0 mm | - | 0 W/m² | - |
| 1777783755 | 10° C | 54% | 1008.7 hPa | 0 mm | - | 0 W/m² | - |
| 1777783516 | 9.44° C | 55% | 1008.6 hPa | 0 mm | - | 0 W/m² | - |
* Rain latest hour (hover to see other rain measurements)
** Current wind speed in m/s (hover to see current wind gust speed)